SCP
0 0 0 0 0 0 0 0 0 0 0 0 0 0 0 0 0 0 0 -0 0 -0 -0 -0 -0 -0 -0 -0 -0 -0 -0 -0 -0 -0 -0 -0 -0 0 0 0 0 -0 -0 -0 -0 -0 -0 -0 -0
0 0 0 0 0 0 0 0 0 0 0 0 0 0 0 0 0 0 0 0 0 -0 -0 -0 -0 -0 -0 -0 0 0 -0 -0 -0 -0 -0 -0 -0 0 0 0 0 -0 -0 -0 -0 -0 -0 -0 -0
0 0 0 0 0 0 0 0 0 0 0 0 0 0 0 0 0 0 0 0 0 0 0 0 -0 -0 -0 0 0 0 0 -0 -0 -0 -0 -0 -0 0 -0 0 -0 -0 -0 -0 -0 -0 -0 0 0
0 0 0 0 0 0 0 0 0 0 0 0 0 0 0 0 0 0 0 0 0 0 0 0 -0 -0 0 0 0 0 0 0 -0 -0 0 0 -0 0 0 -0 -0 -0 -0 0 0 0 0 0 0
0 0 0 0 0 0 0 0 0 0 0 0 0 0 0 0 0 0 0 0 0 0 0 0 0 -0 -0 0 0 0 0 0 0 -0 0 0 0 0 0 0 0 0 0 0 0 0 0 0 0
0 0 0 0 0 0 0 0 0 0 0 0 0 0 0 0 0 0 0 0 0 0 0 0 0 0 0 0 0 0 0 0 0 0 0 0 0 0 0 0 0 0 0 0 0 0 0 0 0
0 0 0 0 0 0 0 0 0 0 0 0 0 0 0 0 -0 0 0 0 0 0 0 0 0 0 0 0 0 0 0 0 0 0 0 0 0 0 0 0 0 0 0 0 0 0 0 0 0
0 0 0 0 0 0 0 0 0 0 0 0 0 0 0 0 0 0 0 0 0 0 0 0 0 0 0 0 0 0 0 0 0 0 0 0 0 0 0 0 0 0 0 0 0 0 0 0 0
0 0 0 0 0 0 0 0 0 0 0 0 0 0 -0 0 -0 0 0 0 0 0 0 0 0 0 0 0 0 0 0 0 0 0 0 0 0 0 0 0 0 0 0 0 0 0 0 0 0
0 0 0 0 0 0 0 0 -0 -0 0 0 0 0 0 -0 -0 0 0 0 0 0 0 0 0 0 0 0 0 0 0 0 0 0 0 0 0 0 0 0 0 0 0 0 0 0 0 0 0
0 0 0 0 0 0 0 0 0 -0 -0 0 0 0 0 0 0 0 0 0 0 0 0 0 0 0 0 0 0 0 0 0 0 0 0 0 0 0 0 0 0 0 0 0 0 0 0 0 0
0 0 0 0 0 0 0 0 0 0 0 0 0 0 0 0 0 0 0 0 0 0 0 0 0 0 0 0 0 0 0 0 0 0 0 0 0 0 0 0 0 0 0 0 0 0 0 0 0
-0 -0 -0 0 0 0 0 0 0 0 0 0 0 0 0 0 0 0 0 0 0 0 0 0 0 0 0 0 0 0 0 0 0 0 0 0 0 0 0 0 0 0 0 0 0 0 0 0 0
-0 -0 -0 -0 -0 0 -0 -0 0 0 0 0 0 0 0 0 0 0 0 0 0 0 0 0 0 0 0 0 0 0 0 0 0 0 0 0 0 0 0 0 0 0 0 0 0 0 0 0 0
-0 -0 -0 -0 -0 -0 -0 -0 -0 0 0 0 0 0 0 0 0 0 0 0 0 0 0 0 0 0 0 0 0 0 0 0 0 0 0 0 0 0 0 0 0 0 0 0 0 0 0 0 0
-0 -0 -0 -0 -0 -0 -0 -0 -0 -0 -0 0 0 0 0 0 0 0 0 0 0 0 0 0 0 0 0 0 0 0 0 0 0 0 0 0 0 0 0 0 0 0 0 0 0 0 0 0 0
-0 -0 -0 -0 -0 -0 -0 -0 0 -0 -0 -0 0 0 0 0 0 0 0 0 0 0 0 0 0 0 0 0 0 0 0 0 0 0 0 0 0 0 0 0 0 0 0 0 0 0 0 0 0
-0 -0 -0 -0 -0 0 -0 -0 -0 -0 -0 -0 0 0 0 0 0 0 0 0 0 1 0 0 0 0 0 0 0 0 0 0 0 0 0 0 0 0 0 0 0 0 0 0 0 0 0 0 0
-0 0 0 0 0 0 -0 -0 -0 -0 -0 -0 0 0 -0 0 0 0 0 -0 0 0 1 0 0 0 0 0 0 0 0 0 0 0 0 0 0 0 0 0 0 0 0 0 0 0 0 0 0
0 0 0 0 0 0 0 -0 -0 -0 -0 0 0 0 0 0 0 0 0 -0 0 0 0 0 0 0 0 0 0 0 0 0 0 0 0 0 0 0 0 0 0 0 0 0 0 0 0 0 0
0 0 0 0 0 0 0 -0 -0 -0 0 0 0 0 0 0 0 0 0 0 -0 0 0 0 0 0 0 0 0 0 0 0 0 0 0 0 0 0 0 0 0 0 0 0 0 0 0 0 0
0 0 0 0 0 0 0 0 -0 0 0 0 0 0 0 0 0 0 0 0 -0 -0 -0 -0 0 0 0 0 0 0 0 0 0 0 0 0 0 0 0 0 0 0 0 0 0 0 0 0 0
0 0 0 0 0 0 0 0 -0 0 0 0 0 0 0 0 0 0 0 0 0 -0 -0 0 -0 0 0 0 0 0 0 0 0 0 0 0 0 0 0 0 0 0 0 0 0 0 0 0 0
0 0 0 0 0 0 0 0 0 0 0 0 0 0 0 0 0 0 0 -0 -0 -0 -0 -0 -0 -0 -0 -0 0 -0 0 0 0 0 0 0 0 0 0 0 0 0 0 0 0 0 0 0 0
0 0 0 0 0 0 0 0 0 0 0 0 0 0 0 0 0 0 0 0 -0 -0 -0 -0 -0 -0 -0 0 -0 0 0 0 0 0 0 0 0 0 0 0 0 0 0 0 0 0 0 0 0
0 0 0 0 0 0 0 0 0 0 0 0 0 0 0 0 0 0 0 0 -0 -0 -0 -0 -0 0 -0 0 0 -0 -0 0 0 0 0 0 0 0 0 0 0 0 0 0 0 0 0 0 0
0 0 0 0 0 0 0 0 0 0 0 0 0 0 0 0 0 0 0 0 0 0 -0 -0 -0 -0 -0 -0 -0 0 -0 -0 0 0 0 0 0 0 0 0 0 0 0 0 0 0 0 0 0
0 0 0 0 0 0 0 0 0 0 0 0 0 0 0 0 0 0 0 0 0 0 0 -0 -0 0 0 -0 -0 -0 0 -0 -0 0 0 0 0 0 0 0 0 0 0 0 0 0 0 0 0
0 0 0 0 0 0 0 0 0 0 0 0 0 0 0 0 0 0 0 0 0 0 0 0 -0 0 0 -0 -0 -0 0 -0 0 -0 0 0 0 0 0 0 0 0 0 0 0 0 0 0 0
0 0 0 0 0 0 0 0 0 0 0 0 0 0 0 0 0 0 0 0 0 0 0 0 0 0 0 0 0 -0 -0 0 0 0 0 -0 0 0 0 0 0 0 0 0 0 0 0 0 0
Wind_Speed_500mb
13 11 4 1 6 7 5 8 4 7 10 6 5 8 7 7 9 6 5 18 20 39 44 45 43 40 37 32 31 42 40 35 30 29 24 18 13 15 21 27 28 25 24 26 27 29 25 29 29
10 9 2 5 6 3 8 7 8 4 22 27 11 7 4 8 15 11 9 19 22 40 44 44 43 40 36 33 35 42 42 33 35 27 25 16 12 18 25 25 29 27 25 25 28 27 27 25 24
12 4 3 6 5 6 6 6 9 17 33 7 11 8 8 7 13 8 9 19 24 43 43 43 42 40 38 34 43 46 42 42 35 33 21 17 12 17 28 28 24 25 26 26 25 26 26 25 23
9 2 9 7 6 8 9 5 9 26 19 19 18 17 15 18 9 13 16 20 26 40 42 43 42 40 40 40 52 49 45 45 40 32 24 19 13 18 26 28 29 26 25 26 24 24 23 23 23
4 1 5 3 7 7 8 12 16 10 15 35 25 12 12 27 26 23 20 23 30 39 41 43 43 44 43 47 54 53 53 46 40 33 27 20 14 14 23 30 29 27 26 25 25 23 22 21 19
2 5 4 5 8 7 7 17 12 9 15 24 9 14 14 24 27 23 22 24 29 36 40 43 45 45 46 52 58 55 52 49 43 32 28 21 17 16 20 22 25 27 26 27 25 24 23 22 19
11 7 7 5 5 8 8 33 11 16 24 15 21 7 19 42 43 28 25 28 33 37 42 46 47 47 46 53 63 61 54 50 44 40 32 25 21 19 19 22 23 23 26 27 26 25 24 22 20
10 8 7 4 4 3 22 46 26 39 9 31 28 13 36 59 57 39 36 35 38 42 44 49 51 50 50 54 63 66 58 52 48 41 31 27 24 22 20 22 25 26 27 27 26 25 24 23 22
11 6 5 2 9 13 34 22 29 39 27 42 20 45 26 42 52 39 40 43 48 53 51 53 56 56 53 55 61 70 66 58 52 45 40 33 30 27 23 22 26 29 28 27 26 25 24 23 22
10 6 8 6 8 9 32 18 38 22 37 36 58 46 57 70 55 43 43 52 58 62 60 58 61 62 59 59 67 72 64 60 60 54 46 42 37 31 27 25 28 29 31 29 28 27 27 25 25
12 7 9 12 27 28 20 22 32 20 7 39 65 81 69 70 66 60 52 56 65 65 65 65 65 65 65 66 71 77 71 66 67 55 52 45 42 37 34 33 33 35 35 35 33 30 28 26 26
11 13 13 17 35 33 17 22 43 15 22 47 53 60 57 55 65 67 66 57 69 74 73 69 72 69 70 70 74 79 82 77 75 67 59 56 53 46 41 38 37 37 37 38 36 33 30 28 28
9 10 12 15 35 31 36 42 28 19 41 63 79 75 63 61 56 56 68 63 67 73 79 72 70 76 76 75 77 80 86 85 76 69 68 64 59 51 44 42 42 41 41 42 38 37 33 31 31
3 6 15 28 39 23 34 28 16 16 71 87 87 83 80 79 68 65 53 66 67 73 78 79 76 75 76 80 82 83 83 85 83 79 77 70 62 54 49 47 46 46 45 42 39 38 36 36 37
5 5 9 15 26 13 47 13 7 48 70 78 85 83 84 75 78 78 62 58 63 71 72 82 85 78 79 80 83 83 84 84 86 82 79 73 65 58 53 50 50 47 46 43 42 40 42 40 40
11 10 11 9 28 16 23 18 20 53 76 77 72 90 86 80 67 73 72 64 54 65 75 61 75 84 80 83 87 87 86 86 86 84 81 77 70 62 57 54 54 50 49 47 47 44 44 43 39
14 3 4 17 14 11 16 23 25 67 52 62 70 80 84 86 83 64 68 62 54 54 65 70 64 70 87 86 86 87 87 89 87 86 85 81 74 67 63 59 55 53 53 54 51 48 46 41 37
7 10 10 9 11 14 24 29 46 60 47 50 68 66 67 69 71 67 57 44 44 41 42 57 61 49 71 89 88 85 86 86 89 92 90 86 78 71 67 65 60 56 58 57 55 50 47 43 37
6 6 8 8 6 25 13 37 42 49 43 48 57 49 61 68 67 63 52 47 34 36 39 38 50 47 49 89 91 93 92 93 92 97 93 87 82 76 73 70 65 61 64 59 57 53 50 47 40
2 3 6 18 3 15 13 41 28 21 25 33 45 42 54 62 75 80 79 56 45 50 39 37 35 41 47 57 86 98 101 97 94 94 91 87 84 82 79 75 71 64 59 62 60 57 53 50 42
3 6 9 9 24 10 21 14 11 12 22 42 42 55 54 48 62 70 73 77 51 44 56 43 31 34 33 43 48 79 97 101 89 93 90 89 87 84 81 77 72 68 66 63 61 59 57 53 47
7 6 11 17 14 6 14 11 12 11 20 13 46 58 58 39 52 68 72 69 67 52 35 48 40 32 44 24 51 60 89 86 100 96 92 92 82 82 78 72 69 72 70 67 62 57 59 57 56
12 16 13 4 5 5 8 2 17 7 11 16 38 57 46 39 53 72 82 77 60 62 52 52 47 48 40 47 47 46 66 88 91 90 90 86 86 81 81 76 71 75 71 69 66 60 60 62 62
24 6 2 5 5 5 6 5 13 7 11 12 29 59 45 42 60 72 79 82 80 74 65 46 46 51 49 70 65 57 47 63 80 87 88 85 87 85 82 85 79 69 73 74 71 65 63 64 66
13 10 8 14 11 8 9 9 22 20 22 12 18 44 43 49 63 75 86 80 82 84 72 64 60 46 48 40 60 95 92 68 63 76 86 84 83 85 83 82 86 85 77 74 74 71 72 70 68
9 4 9 8 6 11 12 13 13 11 40 46 25 34 44 63 80 80 76 71 76 80 74 69 65 58 44 46 45 54 90 87 82 68 81 81 87 86 74 73 77 83 85 77 81 79 76 76 74
4 8 4 6 4 4 9 13 22 16 17 23 32 42 54 74 80 80 78 72 68 73 71 64 64 54 44 44 45 48 56 77 74 73 70 77 79 83 82 76 72 71 77 74 76 87 82 81 78
2 10 5 6 4 10 12 14 15 19 20 20 24 48 70 80 82 85 88 83 75 67 66 58 52 51 44 41 42 44 45 60 66 69 47 69 61 74 81 82 77 73 69 70 66 75 87 85 82
2 1 9 6 5 7 9 15 17 28 24 18 34 60 64 74 83 90 92 79 73 63 63 55 47 53 47 34 38 41 37 35 52 61 61 54 65 60 53 57 73 73 68 65 66 66 70 86 83
4 9 10 8 9 8 5 21 10 16 15 22 41 69 76 77 82 82 83 81 75 65 63 64 50 53 47 36 32 37 40 32 36 48 50 42 49 40 43 36 46 78 70 68 69 71 73 79 82
Wind_Direction_500mb
338 341 314 316 48 53 283 261 281 307 343 301 273 180 217 186 181 242 238 178 182 187 184 191 194 192 191 192 187 176 174 178 178 177 176 181 178 169 156 149 142 143 137 140 139 133 133 120 118
344 348 360 77 87 52 280 274 239 254 317 310 278 263 265 275 239 264 195 185 182 186 189 192 195 195 191 190 184 173 171 173 176 185 178 192 191 174 156 152 147 146 146 140 141 141 129 129 129
345 31 108 76 90 183 238 255 296 336 344 324 328 320 289 258 274 268 226 198 191 187 193 195 196 194 193 188 174 165 175 175 191 189 196 198 199 186 163 156 154 158 146 143 141 140 137 135 129
339 15 68 103 222 243 223 310 306 326 337 352 339 296 282 271 268 248 228 210 200 190 195 197 197 193 191 185 173 172 178 182 196 211 206 201 202 194 170 164 165 162 154 149 149 147 144 139 139
310 66 74 106 225 240 232 270 292 289 290 304 318 282 266 289 273 270 231 216 205 194 196 200 200 194 192 186 180 180 181 193 197 208 216 204 203 198 180 171 172 170 162 156 156 156 157 159 161
132 89 82 236 244 259 287 299 296 266 307 321 309 294 280 288 297 269 231 219 206 204 200 202 203 200 194 190 187 186 191 200 211 208 212 209 209 201 192 185 173 167 166 165 165 166 170 176 181
135 104 202 241 255 316 10 345 338 339 326 358 332 286 317 342 338 276 241 226 214 204 209 207 207 204 200 195 194 192 198 203 204 212 209 214 215 213 207 201 189 176 171 174 175 178 182 188 191
124 96 160 232 249 262 6 345 358 8 313 336 351 345 324 328 324 303 259 232 220 213 214 215 211 209 202 199 198 198 201 206 209 214 215 219 219 221 221 212 196 188 186 184 185 189 194 199 206
121 83 181 12 15 314 347 349 338 335 324 320 307 312 320 327 333 319 260 238 223 217 217 216 215 213 209 204 200 201 205 210 214 217 216 229 228 228 229 221 208 204 199 196 195 199 204 208 215
61 103 35 59 334 314 319 316 319 337 330 315 321 311 313 319 320 315 277 246 231 225 219 216 216 217 213 208 203 203 206 209 214 211 214 225 232 233 235 231 222 213 208 204 205 207 213 213 219
21 74 332 7 357 340 311 334 338 319 318 340 341 323 318 316 311 301 295 266 245 233 231 222 218 219 218 213 208 207 206 205 208 210 215 227 232 233 234 235 230 220 212 212 212 215 220 222 225
97 24 11 4 4 0 3 353 329 324 327 333 334 330 324 325 318 307 297 287 258 241 238 233 224 222 221 217 213 211 211 211 215 216 217 222 231 234 238 240 236 226 222 219 220 222 225 226 228
70 339 358 353 5 8 358 333 291 272 332 325 324 323 323 318 313 312 305 287 275 259 244 242 235 226 224 220 218 217 216 216 217 216 220 222 229 236 242 245 238 229 225 221 223 223 228 227 228
228 235 339 19 12 37 354 304 306 241 329 325 324 323 317 317 315 308 307 297 278 270 257 251 240 234 229 225 223 221 220 219 218 217 221 225 231 236 243 246 240 232 228 223 223 226 231 230 231
28 35 23 4 2 36 344 317 308 317 325 323 324 323 321 313 309 314 301 299 292 276 266 257 248 236 235 232 229 225 224 223 222 220 222 227 231 238 243 245 240 234 228 224 225 229 231 231 233
31 51 10 5 358 15 13 272 280 325 323 318 321 327 324 320 312 307 304 300 301 281 264 271 253 248 239 236 233 231 229 227 226 227 226 229 232 235 240 243 239 232 230 230 232 234 234 235 239
6 313 320 316 22 3 22 280 302 315 317 312 320 327 329 326 324 310 309 300 299 299 274 262 255 259 247 240 237 235 233 232 231 230 229 230 232 235 238 238 237 234 233 232 235 237 236 237 238
317 350 302 248 324 345 307 282 311 314 321 314 326 341 346 346 344 331 322 317 308 309 284 268 259 257 260 249 239 237 237 236 235 233 232 233 232 235 237 236 234 232 231 233 234 236 237 238 240
183 198 272 260 298 340 306 301 301 312 329 331 331 347 2 6 6 351 336 288 326 341 320 279 261 252 260 245 237 238 239 238 235 233 234 234 235 234 233 235 235 232 230 231 232 235 235 236 238
168 274 296 295 269 344 331 301 295 306 316 318 325 344 1 8 10 15 12 356 266 309 330 306 274 259 248 261 252 245 245 242 242 237 234 235 235 236 235 233 233 234 234 231 231 233 234 234 232
54 69 340 287 324 6 330 297 314 303 333 352 350 336 344 354 359 4 7 10 355 290 316 331 318 282 255 253 267 261 248 244 243 243 239 235 234 234 236 236 234 232 232 234 235 234 233 234 231
4 159 305 304 9 314 18 293 303 290 314 318 333 339 337 334 346 350 354 355 357 352 327 299 309 301 288 246 262 257 239 234 247 247 245 241 235 232 232 235 231 231 229 233 235 237 237 237 234
261 305 289 256 115 36 355 302 271 294 308 317 326 328 326 328 339 341 343 342 341 346 349 345 303 294 296 286 263 282 245 244 249 249 245 247 243 237 232 233 233 231 232 234 237 239 240 239 240
275 330 95 86 125 36 186 107 276 271 246 292 321 325 317 316 326 329 331 328 329 332 332 338 326 310 287 275 280 278 310 248 243 238 241 248 247 243 238 234 235 237 238 236 238 241 244 245 243
354 9 352 2 8 249 173 328 252 276 278 233 296 319 318 317 323 329 329 324 319 322 320 317 316 320 303 302 274 276 274 285 249 245 244 241 248 248 242 237 236 238 243 242 241 241 245 243 245
356 51 127 217 284 287 310 224 254 236 292 298 299 319 322 325 328 328 329 324 319 318 317 312 309 311 310 298 298 270 277 280 279 241 246 251 251 253 254 249 242 242 245 247 245 242 242 244 244
326 48 194 119 99 321 259 278 284 287 285 290 311 322 326 328 329 329 330 325 320 320 320 319 309 303 304 302 294 292 273 276 271 275 250 240 248 253 257 252 245 244 245 244 248 245 239 242 244
24 167 63 26 11 299 281 286 246 284 283 302 307 313 321 324 324 326 324 325 321 315 320 319 315 302 293 295 292 299 287 262 269 253 249 242 239 250 252 248 245 240 241 244 246 243 238 239 242
142 342 45 115 150 211 294 253 209 247 264 283 303 311 310 310 315 319 322 320 321 312 316 315 320 320 291 284 289 294 295 280 257 261 263 260 254 235 234 255 248 242 236 238 241 243 240 237 240
290 203 165 130 247 234 260 267 227 229 260 292 291 305 309 308 311 313 313 320 322 318 311 313 311 325 305 281 284 297 293 289 256 253 261 260 257 253 262 248 262 254 246 235 238 239 233 232 232
Wind_Speed_850mb
13 11 4 1 6 7 5 8 4 7 10 6 5 8 7 7 9 6 5 18 20 39 44 45 43 40 37 32 31 42 40 35 30 29 24 18 13 15 21 27 28 25 24 26 27 29 25 29 29
10 9 2 5 6 3 8 7 8 4 22 27 11 7 4 8 15 11 9 19 22 40 44 44 43 40 36 33 35 42 42 33 35 27 25 16 12 18 25 25 29 27 25 25 28 27 27 25 24
12 4 3 6 5 6 6 6 9 17 33 7 11 8 8 7 13 8 9 19 24 43 43 43 42 40 38 34 43 46 42 42 35 33 21 17 12 17 28 28 24 25 26 26 25 26 26 25 23
9 2 9 7 6 8 9 5 9 26 19 19 18 17 15 18 9 13 16 20 26 40 42 43 42 40 40 40 52 49 45 45 40 32 24 19 13 18 26 28 29 26 25 26 24 24 23 23 23
4 1 5 3 7 7 8 12 16 10 15 35 25 12 12 27 26 23 20 23 30 39 41 43 43 44 43 47 54 53 53 46 40 33 27 20 14 14 23 30 29 27 26 25 25 23 22 21 19
2 5 4 5 8 7 7 17 12 9 15 24 9 14 14 24 27 23 22 24 29 36 40 43 45 45 46 52 58 55 52 49 43 32 28 21 17 16 20 22 25 27 26 27 25 24 23 22 19
11 7 7 5 5 8 8 33 11 16 24 15 21 7 19 42 43 28 25 28 33 37 42 46 47 47 46 53 63 61 54 50 44 40 32 25 21 19 19 22 23 23 26 27 26 25 24 22 20
10 8 7 4 4 3 22 46 26 39 9 31 28 13 36 59 57 39 36 35 38 42 44 49 51 50 50 54 63 66 58 52 48 41 31 27 24 22 20 22 25 26 27 27 26 25 24 23 22
11 6 5 2 9 13 34 22 29 39 27 42 20 45 26 42 52 39 40 43 48 53 51 53 56 56 53 55 61 70 66 58 52 45 40 33 30 27 23 22 26 29 28 27 26 25 24 23 22
10 6 8 6 8 9 32 18 38 22 37 36 58 46 57 70 55 43 43 52 58 62 60 58 61 62 59 59 67 72 64 60 60 54 46 42 37 31 27 25 28 29 31 29 28 27 27 25 25
12 7 9 12 27 28 20 22 32 20 7 39 65 81 69 70 66 60 52 56 65 65 65 65 65 65 65 66 71 77 71 66 67 55 52 45 42 37 34 33 33 35 35 35 33 30 28 26 26
11 13 13 17 35 33 17 22 43 15 22 47 53 60 57 55 65 67 66 57 69 74 73 69 72 69 70 70 74 79 82 77 75 67 59 56 53 46 41 38 37 37 37 38 36 33 30 28 28
9 10 12 15 35 31 36 42 28 19 41 63 79 75 63 61 56 56 68 63 67 73 79 72 70 76 76 75 77 80 86 85 76 69 68 64 59 51 44 42 42 41 41 42 38 37 33 31 31
3 6 15 28 39 23 34 28 16 16 71 87 87 83 80 79 68 65 53 66 67 73 78 79 76 75 76 80 82 83 83 85 83 79 77 70 62 54 49 47 46 46 45 42 39 38 36 36 37
5 5 9 15 26 13 47 13 7 48 70 78 85 83 84 75 78 78 62 58 63 71 72 82 85 78 79 80 83 83 84 84 86 82 79 73 65 58 53 50 50 47 46 43 42 40 42 40 40
11 10 11 9 28 16 23 18 20 53 76 77 72 90 86 80 67 73 72 64 54 65 75 61 75 84 80 83 87 87 86 86 86 84 81 77 70 62 57 54 54 50 49 47 47 44 44 43 39
14 3 4 17 14 11 16 23 25 67 52 62 70 80 84 86 83 64 68 62 54 54 65 70 64 70 87 86 86 87 87 89 87 86 85 81 74 67 63 59 55 53 53 54 51 48 46 41 37
7 10 10 9 11 14 24 29 46 60 47 50 68 66 67 69 71 67 57 44 44 41 42 57 61 49 71 89 88 85 86 86 89 92 90 86 78 71 67 65 60 56 58 57 55 50 47 43 37
6 6 8 8 6 25 13 37 42 49 43 48 57 49 61 68 67 63 52 47 34 36 39 38 50 47 49 89 91 93 92 93 92 97 93 87 82 76 73 70 65 61 64 59 57 53 50 47 40
2 3 6 18 3 15 13 41 28 21 25 33 45 42 54 62 75 80 79 56 45 50 39 37 35 41 47 57 86 98 101 97 94 94 91 87 84 82 79 75 71 64 59 62 60 57 53 50 42
3 6 9 9 24 10 21 14 11 12 22 42 42 55 54 48 62 70 73 77 51 44 56 43 31 34 33 43 48 79 97 101 89 93 90 89 87 84 81 77 72 68 66 63 61 59 57 53 47
7 6 11 17 14 6 14 11 12 11 20 13 46 58 58 39 52 68 72 69 67 52 35 48 40 32 44 24 51 60 89 86 100 96 92 92 82 82 78 72 69 72 70 67 62 57 59 57 56
12 16 13 4 5 5 8 2 17 7 11 16 38 57 46 39 53 72 82 77 60 62 52 52 47 48 40 47 47 46 66 88 91 90 90 86 86 81 81 76 71 75 71 69 66 60 60 62 62
24 6 2 5 5 5 6 5 13 7 11 12 29 59 45 42 60 72 79 82 80 74 65 46 46 51 49 70 65 57 47 63 80 87 88 85 87 85 82 85 79 69 73 74 71 65 63 64 66
13 10 8 14 11 8 9 9 22 20 22 12 18 44 43 49 63 75 86 80 82 84 72 64 60 46 48 40 60 95 92 68 63 76 86 84 83 85 83 82 86 85 77 74 74 71 72 70 68
9 4 9 8 6 11 12 13 13 11 40 46 25 34 44 63 80 80 76 71 76 80 74 69 65 58 44 46 45 54 90 87 82 68 81 81 87 86 74 73 77 83 85 77 81 79 76 76 74
4 8 4 6 4 4 9 13 22 16 17 23 32 42 54 74 80 80 78 72 68 73 71 64 64 54 44 44 45 48 56 77 74 73 70 77 79 83 82 76 72 71 77 74 76 87 82 81 78
2 10 5 6 4 10 12 14 15 19 20 20 24 48 70 80 82 85 88 83 75 67 66 58 52 51 44 41 42 44 45 60 66 69 47 69 61 74 81 82 77 73 69 70 66 75 87 85 82
2 1 9 6 5 7 9 15 17 28 24 18 34 60 64 74 83 90 92 79 73 63 63 55 47 53 47 34 38 41 37 35 52 61 61 54 65 60 53 57 73 73 68 65 66 66 70 86 83
4 9 10 8 9 8 5 21 10 16 15 22 41 69 76 77 82 82 83 81 75 65 63 64 50 53 47 36 32 37 40 32 36 48 50 42 49 40 43 36 46 78 70 68 69 71 73 79 82
Wind_Direction_850mb
338 341 314 316 48 53 283 261 281 307 343 301 273 180 217 186 181 242 238 178 182 187 184 191 194 192 191 192 187 176 174 178 178 177 176 181 178 169 156 149 142 143 137 140 139 133 133 120 118
344 348 360 77 87 52 280 274 239 254 317 310 278 263 265 275 239 264 195 185 182 186 189 192 195 195 191 190 184 173 171 173 176 185 178 192 191 174 156 152 147 146 146 140 141 141 129 129 129
345 31 108 76 90 183 238 255 296 336 344 324 328 320 289 258 274 268 226 198 191 187 193 195 196 194 193 188 174 165 175 175 191 189 196 198 199 186 163 156 154 158 146 143 141 140 137 135 129
339 15 68 103 222 243 223 310 306 326 337 352 339 296 282 271 268 248 228 210 200 190 195 197 197 193 191 185 173 172 178 182 196 211 206 201 202 194 170 164 165 162 154 149 149 147 144 139 139
310 66 74 106 225 240 232 270 292 289 290 304 318 282 266 289 273 270 231 216 205 194 196 200 200 194 192 186 180 180 181 193 197 208 216 204 203 198 180 171 172 170 162 156 156 156 157 159 161
132 89 82 236 244 259 287 299 296 266 307 321 309 294 280 288 297 269 231 219 206 204 200 202 203 200 194 190 187 186 191 200 211 208 212 209 209 201 192 185 173 167 166 165 165 166 170 176 181
135 104 202 241 255 316 10 345 338 339 326 358 332 286 317 342 338 276 241 226 214 204 209 207 207 204 200 195 194 192 198 203 204 212 209 214 215 213 207 201 189 176 171 174 175 178 182 188 191
124 96 160 232 249 262 6 345 358 8 313 336 351 345 324 328 324 303 259 232 220 213 214 215 211 209 202 199 198 198 201 206 209 214 215 219 219 221 221 212 196 188 186 184 185 189 194 199 206
121 83 181 12 15 314 347 349 338 335 324 320 307 312 320 327 333 319 260 238 223 217 217 216 215 213 209 204 200 201 205 210 214 217 216 229 228 228 229 221 208 204 199 196 195 199 204 208 215
61 103 35 59 334 314 319 316 319 337 330 315 321 311 313 319 320 315 277 246 231 225 219 216 216 217 213 208 203 203 206 209 214 211 214 225 232 233 235 231 222 213 208 204 205 207 213 213 219
21 74 332 7 357 340 311 334 338 319 318 340 341 323 318 316 311 301 295 266 245 233 231 222 218 219 218 213 208 207 206 205 208 210 215 227 232 233 234 235 230 220 212 212 212 215 220 222 225
97 24 11 4 4 0 3 353 329 324 327 333 334 330 324 325 318 307 297 287 258 241 238 233 224 222 221 217 213 211 211 211 215 216 217 222 231 234 238 240 236 226 222 219 220 222 225 226 228
70 339 358 353 5 8 358 333 291 272 332 325 324 323 323 318 313 312 305 287 275 259 244 242 235 226 224 220 218 217 216 216 217 216 220 222 229 236 242 245 238 229 225 221 223 223 228 227 228
228 235 339 19 12 37 354 304 306 241 329 325 324 323 317 317 315 308 307 297 278 270 257 251 240 234 229 225 223 221 220 219 218 217 221 225 231 236 243 246 240 232 228 223 223 226 231 230 231
28 35 23 4 2 36 344 317 308 317 325 323 324 323 321 313 309 314 301 299 292 276 266 257 248 236 235 232 229 225 224 223 222 220 222 227 231 238 243 245 240 234 228 224 225 229 231 231 233
31 51 10 5 358 15 13 272 280 325 323 318 321 327 324 320 312 307 304 300 301 281 264 271 253 248 239 236 233 231 229 227 226 227 226 229 232 235 240 243 239 232 230 230 232 234 234 235 239
6 313 320 316 22 3 22 280 302 315 317 312 320 327 329 326 324 310 309 300 299 299 274 262 255 259 247 240 237 235 233 232 231 230 229 230 232 235 238 238 237 234 233 232 235 237 236 237 238
317 350 302 248 324 345 307 282 311 314 321 314 326 341 346 346 344 331 322 317 308 309 284 268 259 257 260 249 239 237 237 236 235 233 232 233 232 235 237 236 234 232 231 233 234 236 237 238 240
183 198 272 260 298 340 306 301 301 312 329 331 331 347 2 6 6 351 336 288 326 341 320 279 261 252 260 245 237 238 239 238 235 233 234 234 235 234 233 235 235 232 230 231 232 235 235 236 238
168 274 296 295 269 344 331 301 295 306 316 318 325 344 1 8 10 15 12 356 266 309 330 306 274 259 248 261 252 245 245 242 242 237 234 235 235 236 235 233 233 234 234 231 231 233 234 234 232
54 69 340 287 324 6 330 297 314 303 333 352 350 336 344 354 359 4 7 10 355 290 316 331 318 282 255 253 267 261 248 244 243 243 239 235 234 234 236 236 234 232 232 234 235 234 233 234 231
4 159 305 304 9 314 18 293 303 290 314 318 333 339 337 334 346 350 354 355 357 352 327 299 309 301 288 246 262 257 239 234 247 247 245 241 235 232 232 235 231 231 229 233 235 237 237 237 234
261 305 289 256 115 36 355 302 271 294 308 317 326 328 326 328 339 341 343 342 341 346 349 345 303 294 296 286 263 282 245 244 249 249 245 247 243 237 232 233 233 231 232 234 237 239 240 239 240
275 330 95 86 125 36 186 107 276 271 246 292 321 325 317 316 326 329 331 328 329 332 332 338 326 310 287 275 280 278 310 248 243 238 241 248 247 243 238 234 235 237 238 236 238 241 244 245 243
354 9 352 2 8 249 173 328 252 276 278 233 296 319 318 317 323 329 329 324 319 322 320 317 316 320 303 302 274 276 274 285 249 245 244 241 248 248 242 237 236 238 243 242 241 241 245 243 245
356 51 127 217 284 287 310 224 254 236 292 298 299 319 322 325 328 328 329 324 319 318 317 312 309 311 310 298 298 270 277 280 279 241 246 251 251 253 254 249 242 242 245 247 245 242 242 244 244
326 48 194 119 99 321 259 278 284 287 285 290 311 322 326 328 329 329 330 325 320 320 320 319 309 303 304 302 294 292 273 276 271 275 250 240 248 253 257 252 245 244 245 244 248 245 239 242 244
24 167 63 26 11 299 281 286 246 284 283 302 307 313 321 324 324 326 324 325 321 315 320 319 315 302 293 295 292 299 287 262 269 253 249 242 239 250 252 248 245 240 241 244 246 243 238 239 242
142 342 45 115 150 211 294 253 209 247 264 283 303 311 310 310 315 319 322 320 321 312 316 315 320 320 291 284 289 294 295 280 257 261 263 260 254 235 234 255 248 242 236 238 241 243 240 237 240
290 203 165 130 247 234 260 267 227 229 260 292 291 305 309 308 311 313 313 320 322 318 311 313 311 325 305 281 284 297 293 289 256 253 261 260 257 253 262 248 262 254 246 235 238 239 233 232 232